User: anonymous   Login
Location: ??????
(41.3164°N, 22.6615°E)
Time: 18:29:33
(UTC+00:00)
Language:

Landsat 5 - Orbit

View from above orbital plane
View from above orbital plane
View from above satellite
View from above satellite

Ground track
Ground track

The orbit data is extracted from the following two-line orbital elements,

1 14780U 84021A   22021.46562421  .00000818  00000-0  79751-4 0  9992
2 14780  98.2053 213.0929 0090278  50.7740 310.1448 14.92540090 26265
Epoch (UTC): 21 January 2022 11:10:29
Eccentricity: 0.0090278
inclination: 98.2053°
perigee height: 527 km
apogee height: 653 km
right ascension of ascending node: 213.0929°
argument of perigee: 50.7740°
revolutions per day: 14.92540090
mean anomaly at epoch: 310.1448°
orbit number at epoch: 2626

The dashed part of the orbit path shows where the satellite is in the earth's shadow,  

DLR